Theta_e
346 346 346 345 344 346 347 347 349 350 351 350 349 347 346 344 342 341 347 357 354 352 351 352 351 349 347 344 342 340 338 337 335 334 332 332 331 331 330 329 328 328 328
350 345 345 344 345 345 347 348 348 350 352 351 350 351 350 349 348 345 342 349 354 352 352 352 352 352 349 346 343 341 340 338 337 335 334 332 332 332 331 330 329 328 328
353 354 344 343 343 349 348 350 351 353 351 351 351 350 349 349 350 348 345 343 353 352 352 353 354 355 352 350 347 343 342 340 338 337 336 334 333 332 332 330 329 328 328
354 357 347 344 344 345 343 347 349 349 349 347 349 348 348 351 352 350 347 344 345 350 353 352 353 354 355 353 350 347 344 343 341 340 338 336 334 333 333 331 329 328 328
352 354 347 346 353 344 344 344 344 350 348 348 348 349 348 346 350 347 348 350 347 346 347 352 353 352 353 354 351 351 348 347 344 343 340 339 337 335 334 332 328 329 327
351 352 350 352 351 349 349 347 356 352 352 348 345 346 350 348 347 348 348 347 347 346 346 354 354 352 351 351 352 352 350 349 347 345 343 342 339 337 334 332 328 328 326
350 353 350 352 355 355 356 360 356 357 354 353 346 345 345 353 355 349 347 346 345 343 345 349 347 349 350 349 350 352 352 350 349 347 345 343 341 338 335 331 328 326 325
357 358 359 355 346 345 344 333 327 327 335 347 344 343 335 338 346 348 347 344 343 343 339 345 350 352 345 349 348 349 350 350 349 350 347 344 342 338 335 329 327 324 324
348 351 350 347 344 339 337 334 329 328 323 327 340 343 331 330 337 340 348 344 346 340 343 349 350 352 352 350 349 350 350 350 347 347 349 345 342 338 333 330 325 324 323
345 346 346 347 347 341 337 338 338 331 330 327 338 343 350 345 333 330 340 348 346 345 346 343 349 348 352 348 347 349 346 348 346 346 347 344 340 335 331 327 325 322 321
340 338 340 342 344 345 345 345 341 340 337 335 339 339 343 340 347 341 331 335 345 347 343 347 348 349 350 349 351 343 342 343 341 344 342 341 337 332 329 325 323 321 318
333 333 335 336 336 335 337 340 341 340 340 341 341 341 341 336 336 335 332 333 334 344 344 344 348 348 348 345 345 339 339 338 336 337 337 336 333 330 326 323 319 316 314
326 329 330 332 331 332 333 333 335 335 339 340 340 340 344 345 342 340 336 332 334 337 344 344 345 347 350 353 347 342 338 334 332 331 331 330 329 325 322 317 313 309 310
323 328 328 328 327 329 330 333 328 333 334 336 336 340 340 342 344 342 338 334 329 335 343 346 344 345 347 348 348 338 339 330 328 326 325 325 324 321 316 312 307 307 307
324 326 326 325 325 324 326 331 325 330 332 331 335 340 337 337 340 347 343 341 334 329 329 344 346 347 344 345 339 343 340 328 326 323 322 321 319 316 312 308 306 305 306
326 324 323 324 323 323 324 327 327 324 327 328 327 331 336 334 336 336 337 339 339 338 332 338 340 345 343 343 336 342 337 328 324 322 320 318 316 313 309 307 305 304 305
324 322 321 320 320 320 322 323 324 324 326 327 328 326 328 333 330 332 335 338 338 342 335 337 345 345 340 339 336 332 330 329 322 320 318 316 313 311 309 306 305 303 304
322 320 319 318 317 317 320 319 319 319 322 321 323 325 324 323 329 334 334 339 338 342 339 336 342 336 337 338 334 330 330 329 328 319 317 315 312 310 309 307 305 304 303
318 317 315 314 313 313 314 316 317 317 317 319 322 322 323 325 325 327 330 330 333 338 339 339 338 334 329 334 331 329 329 329 329 321 316 313 311 310 309 308 306 305 302
314 313 313 312 312 312 312 312 314 313 313 313 317 320 320 321 323 322 322 328 330 330 335 336 335 331 329 328 326 321 320 325 327 325 321 318 312 309 309 309 308 307 303
313 313 312 312 312 312 310 310 310 308 307 308 312 314 318 321 319 319 316 321 323 323 325 332 331 330 327 322 319 321 320 322 326 329 323 320 315 314 311 308 309 309 305
312 312 311 311 311 311 301 302 303 307 305 305 308 312 316 317 317 316 317 315 315 315 318 321 328 326 325 327 325 322 322 319 319 331 328 323 323 320 321 315 310 309 303
311 310 310 310 310 311 300 299 300 305 305 305 307 310 311 311 316 317 317 315 312 311 310 319 320 325 327 327 330 325 323 323 324 327 327 324 326 324 325 311 305 303 302
308 307 307 308 309 309 301 299 299 305 306 308 309 310 312 312 313 313 314 315 318 320 321 320 327 327 328 326 328 328 328 326 329 329 326 321 326 324 326 313 304 302 303
304 304 305 306 306 305 301 299 299 304 305 307 308 310 310 311 305 303 308 310 313 317 315 309 308 306 307 306 313 326 324 324 322 322 326 327 326 324 323 315 308 303 303
301 302 302 303 303 303 301 298 298 302 302 303 307 308 305 306 299 300 306 306 306 311 315 318 321 314 309 321 307 323 328 321 322 319 326 323 322 323 317 323 314 306 306
Wind_Speed
6 6 7 7 6 7 8 8 8 5 7 9 11 9 9 8 9 7 1 16 16 15 15 16 16 15 15 14 13 12 11 10 10 8 7 6 5 3 3 3 3 4 4
6 7 7 8 8 8 8 8 8 7 7 9 8 7 8 10 11 9 7 5 16 11 16 16 17 16 15 15 14 13 12 12 12 11 10 8 7 5 5 4 4 3 5
8 7 8 7 8 8 10 9 8 7 8 10 11 10 10 11 10 8 7 8 9 18 17 17 17 16 17 17 16 15 14 14 14 14 12 11 9 7 7 5 4 4 5
10 8 8 8 8 8 8 8 9 9 9 8 8 9 7 7 7 6 8 7 5 4 15 20 19 19 17 18 18 17 16 14 15 14 14 13 11 10 8 6 5 4 5
12 10 9 8 6 7 8 8 9 9 9 9 8 11 7 6 8 8 8 6 7 7 7 17 19 17 17 17 18 17 17 16 16 15 16 15 13 11 9 7 5 4 4
10 9 8 8 7 7 9 10 8 9 10 10 11 9 6 7 8 8 8 7 8 9 7 9 11 11 16 15 15 17 18 17 17 17 16 15 15 13 9 7 5 4 4
7 6 7 7 7 7 7 10 11 8 9 11 11 11 10 11 10 9 8 8 5 8 7 5 5 5 10 17 16 18 17 16 17 17 17 16 15 13 9 7 4 4 3
4 3 5 7 7 6 7 9 10 8 9 19 14 10 4 6 9 5 8 7 5 5 8 9 3 6 6 10 13 16 16 15 14 13 15 16 14 14 10 7 5 3 5
7 4 3 6 3 3 5 3 6 4 6 12 32 6 6 8 7 6 11 6 4 5 5 5 6 8 4 2 11 13 13 12 11 12 11 13 14 13 9 7 5 4 5
6 7 7 4 4 4 7 2 5 4 4 7 18 11 7 9 7 9 5 5 5 5 6 8 5 7 6 5 8 4 14 9 8 8 6 12 15 12 10 7 6 5 5
9 9 7 8 6 5 5 2 2 3 4 5 10 10 13 10 9 7 8 3 5 6 4 6 6 5 5 7 7 11 11 9 7 8 12 14 13 10 8 6 4 4 5
4 8 6 6 6 6 7 7 4 5 3 5 9 11 10 12 8 4 8 7 8 7 5 5 3 6 8 6 6 15 10 8 7 11 13 11 10 9 7 4 3 3 5
5 7 7 7 7 7 8 8 7 10 10 5 8 8 8 10 10 8 7 9 8 4 3 5 5 5 3 2 9 9 10 9 12 12 13 12 9 7 5 4 2 2 5
7 9 9 9 10 11 10 7 7 4 9 7 6 8 7 9 9 9 7 7 8 7 4 7 8 6 5 6 9 6 9 13 13 12 12 12 8 7 6 4 2 1 4
7 8 9 9 10 11 11 11 4 8 6 8 10 9 5 5 10 7 9 8 7 9 11 8 4 8 6 7 9 9 10 14 14 13 12 12 9 7 6 5 2 2 5
8 9 9 9 9 9 11 10 8 6 9 8 8 11 8 7 6 8 9 7 9 7 10 6 7 10 7 3 5 7 11 13 13 13 13 11 11 9 7 5 3 1 5
9 10 10 11 11 10 8 9 10 8 6 8 8 9 11 12 9 6 7 6 6 8 9 9 4 7 9 8 7 9 10 9 8 12 13 10 10 9 8 6 4 1 5
10 11 11 12 11 11 10 8 9 11 8 8 10 9 10 10 11 5 7 8 8 8 7 11 2 2 3 8 8 9 8 7 8 13 12 12 11 9 7 7 5 2 4
11 12 13 12 12 11 12 11 10 8 7 10 10 9 10 10 10 10 8 9 10 7 7 7 4 2 1 4 7 4 6 7 8 19 13 11 10 10 9 8 7 5 3
11 12 12 12 12 12 10 10 8 9 10 10 12 10 10 11 10 9 10 11 9 9 8 6 5 3 4 3 3 5 4 3 6 9 10 11 13 13 11 9 9 7 4
10 12 12 12 12 11 6 6 7 8 11 12 11 11 9 10 6 8 7 9 11 9 8 7 5 1 3 3 6 4 5 5 8 7 8 8 9 8 8 11 10 11 6
11 11 12 13 12 10 12 8 6 10 11 12 11 10 10 12 11 15 12 11 8 9 10 8 6 4 4 7 8 7 6 5 5 9 10 9 9 8 8 9 16 12 8
12 13 13 13 13 12 8 5 1 10 12 11 12 10 10 10 8 10 9 8 12 14 13 8 10 8 6 1 7 10 11 9 7 4 8 8 9 7 6 8 15 13 8
12 12 13 13 13 11 7 3 4 13 12 12 12 12 9 11 10 10 11 13 12 11 10 10 9 7 7 5 3 6 11 9 6 3 8 5 7 7 7 8 12 12 9
11 12 12 13 13 13 5 3 8 13 12 12 11 11 11 11 1 5 8 12 14 12 13 11 12 11 10 9 7 3 6 7 8 7 8 7 7 7 7 8 7 9 9
11 10 13 13 13 14 12 2 4 9 12 10 11 11 7 9 12 5 7 10 13 12 12 14 7 9 11 11 9 7 6 7 7 5 8 6 8 8 5 6 9 7 6
Wind_Direction
230 230 260 265 256 227 227 241 231 249 234 225 240 239 269 300 309 292 109 170 173 186 202 210 210 211 212 215 214 211 212 218 222 224 228 238 247 251 267 291 314 326 327
227 237 226 240 253 252 254 247 250 257 236 268 297 267 270 279 278 288 282 193 179 172 199 205 212 215 214 217 216 216 217 221 226 229 230 235 244 251 259 265 286 311 323
234 258 247 247 245 251 258 271 278 276 258 263 256 251 255 254 257 262 269 261 165 184 197 200 206 215 212 214 211 212 216 219 225 228 230 232 234 238 254 264 283 305 311
226 222 238 253 251 263 269 269 269 259 267 270 275 274 283 267 258 245 259 270 245 196 196 197 200 208 211 214 211 211 216 215 222 227 228 228 231 230 237 254 269 292 315
222 216 246 250 252 263 274 271 264 264 266 265 264 257 263 243 269 268 260 257 279 272 232 184 204 205 212 214 215 212 216 215 219 225 229 228 226 228 229 244 262 293 298
223 221 234 245 259 253 247 249 260 273 297 300 294 303 298 306 279 266 254 251 242 253 246 162 184 205 207 212 213 218 220 222 223 225 228 225 220 220 211 229 244 276 288
239 220 251 239 233 265 295 318 308 294 279 282 269 252 248 232 228 240 249 236 249 269 255 225 32 256 185 198 200 207 220 223 228 227 227 224 215 209 207 222 234 256 288
26 359 3 23 18 11 18 56 53 353 344 322 284 276 271 268 216 32 260 246 234 307 289 244 232 254 170 214 206 205 212 222 234 231 220 215 208 194 190 204 233 247 266
9 8 92 129 255 206 263 176 143 82 326 329 305 299 18 292 317 162 212 221 145 237 288 133 186 178 201 156 167 193 206 212 230 238 230 200 194 171 187 192 217 240 274
5 10 343 1 250 277 265 14 106 117 146 257 265 307 285 304 300 302 324 220 155 230 227 286 187 299 175 217 95 78 163 182 215 228 204 172 165 169 180 192 209 241 270
346 341 337 317 316 267 264 318 61 238 190 201 272 283 271 267 224 254 274 339 205 221 187 201 239 217 217 202 166 127 153 175 201 171 145 160 160 175 181 191 216 250 279
21 26 18 20 27 8 5 8 354 306 296 263 264 274 279 290 292 238 259 246 279 185 160 194 200 242 188 201 88 126 163 159 152 139 137 149 164 176 177 183 217 270 294
31 37 13 12 12 7 5 9 355 11 314 305 292 278 277 284 296 297 295 291 268 128 184 203 204 242 270 195 119 148 149 142 135 134 136 139 161 170 171 180 208 300 306
33 18 17 10 10 357 357 358 351 352 323 315 303 310 294 288 288 292 292 308 309 283 179 198 185 178 234 250 126 167 143 132 129 126 129 133 156 167 171 174 187 268 316
15 15 15 8 1 359 347 341 339 335 319 328 315 275 304 316 311 304 313 307 276 283 277 186 151 177 190 198 151 181 146 135 135 139 141 145 153 173 182 171 183 307 314
10 1 360 358 358 352 348 342 333 337 335 309 320 337 317 299 287 310 303 319 311 304 288 314 221 147 161 153 167 143 138 143 142 145 148 158 157 175 184 181 192 306 323
356 348 345 338 335 337 347 333 323 293 296 319 318 313 324 316 304 318 304 299 297 293 280 276 49 132 147 158 158 119 145 148 150 161 167 167 161 175 185 183 209 274 312
339 335 331 328 323 321 319 315 312 317 310 328 327 322 312 317 327 315 319 311 294 288 284 281 189 143 174 161 164 151 164 168 174 172 178 173 169 179 190 192 215 249 306
332 328 326 323 321 321 313 312 310 316 329 326 306 313 314 320 316 321 326 310 306 315 293 275 248 152 92 169 160 154 157 181 211 159 170 183 183 184 192 214 223 239 283
326 322 321 317 316 313 315 304 340 341 325 316 309 303 307 309 308 347 319 315 302 318 296 290 278 187 168 139 140 154 167 210 201 177 185 185 185 195 201 216 229 241 255
319 317 317 315 313 312 323 9 335 315 307 299 292 295 290 298 306 294 291 308 317 312 312 306 284 230 168 155 181 163 188 183 231 204 183 182 181 192 201 217 231 222 223
316 314 309 308 306 300 115 95 2 313 301 290 285 286 289 292 282 265 227 245 263 286 299 303 309 274 258 186 187 181 181 185 206 220 201 189 188 192 202 196 191 167 168
315 311 308 304 306 306 120 120 97 310 303 286 280 273 269 271 275 285 277 229 253 235 233 273 283 282 280 246 215 189 193 192 212 179 216 197 171 202 154 108 124 136 143
322 310 308 302 301 300 96 33 310 304 296 286 279 275 269 275 273 286 295 279 274 284 243 228 254 262 266 294 347 233 202 188 214 227 195 209 157 184 129 119 135 135 130
312 307 299 304 313 308 332 353 323 309 302 301 295 286 282 275 144 70 302 281 277 276 271 236 240 255 244 241 232 293 191 202 194 188 194 239 164 161 155 146 143 138 139
295 299 305 307 302 299 301 260 288 305 307 308 308 306 307 294 44 32 277 275 272 275 290 298 255 239 245 238 207 214 202 196 205 157 196 211 163 154 164 156 142 163 168